Location: Dentlein
(49.1477°N, 10.4231°E)
Time: 08:12:39
(UTC+00:00)

YAOGAN 6 - Pass Details

Date: 23 May 2024
Orbit: 410 x 434 km, 97.2° (Epoch: 15 June)

Event Time Altitude Azimuth Distance (km) Brightness Sun altitude
Rises 02:37:15 0° 20° (NNE) 2,438 7.4 -7.0°
Reaches altitude 10° 02:39:24 10° 30° (NNE) 1,560 6.6 -6.8°
Maximum altitude 02:42:29 34° 97° (E) 737 3.9 -6.4°
Drops below altitude 10° 02:45:32 10° 165° (SSE) 1,534 4.8 -6.0°
Sets 02:47:38 0° 175° (S) 2,391 5.7 -5.8°
